sat.trackr.live / text

‹ back to catalog

STARLINK-5764

NORAD 55602 · 2023-020AK

PAYLOAD ACTIVE UNKNOWN

§ Identity

Operator
Country
US
Launch date
2023-02-12
Launch site
AFETR
Launch vehicle
Mass (kg)
RCS (m²)

Purposes: comms

External: N2YO · Heavens-Above · Gunter

§ Orbital elements

Epoch: 2026-09-20T15:42:05.122080Z

Period
94.27 min
Inclination
43.0058°
Eccentricity
0.0001680
Mean motion
15.27572424 rev/d
Perigee alt
481.9 km
Apogee alt
484.2 km
Semi-major
6,861.2 km
B*
-9.9450e-6
RAAN
333.4119°
Arg perigee
283.7101°
Mean anomaly
76.3564°
Rev number
19,885

§ Raw data

STARLINK-57641 55602U 23020AK  26263.65422595 -.00000536  00000+0 -99450-5 0  99992 55602  43.0058 333.4119 0001680 283.7101  76.3564 15.27572424198852

JSON: /api/v1/satellites/55602 · /tle

For live sub-satellite position, see the globe view (requires WebGL).

§ Visibility from observer

Set your observer location to see the next 7 days of passes ≥ 10°. The values pass through the URL so the page stays shareable.

No JS? Fill the form by hand. The geolocation button needs JavaScript.